Regional Weather Roundup
Issued by NWS Grand Forks, ND

Home | Current Version | Previous Version | Graphics & Text | Print | Product List | Glossary On
Versions: 1 2 3 4 5 6 7 8 9 10 11 12 13 14 15 16 17 18 19 20 21 22 23 24 25 26 27 28 29 30 31 32 33 34 35 36 37 38 39 40 41 42 43 44 45 46 47 48 49 50
000
ASUS43 KFGF 272310
RWRFGF
PRAIRIE TO PINES  WEATHER ROUNDUP
NATIONAL WEATHER SERVICE EASTERN NORTH DAKOTA/GRAND FORKS ND
600 PM CDT FRI MAY 27 2016

 **SATELLITE DATA USED TO AUGMENT SKY COVER AT AUTOMATED STATIONS**
 *****  WEATHER ACROSS EASTERN NORTH DAKOTA  *****

CITY           SKY/WX    TMP DP  RH WIND       PRES   REMARKS
GRAND FORKS    CLOUDY    75  53  46 N7        29.75F
GRAND FRKS AFB PTSUNNY   72  51  48 NE7       29.77F
GRAND FRKS NWS   N/A     73 N/A N/A N5          N/A
DEVILS LAKE    SUNNY     70  50  49 NW9       29.80S
FARGO          LGT RAIN  62  59  90 NW3       29.77R
WAHPETON ARPT  CLOUDY    73  52  46 S5        29.75R
$$

 ***** WEATHER ACROSS CENTRAL AND WESTERN NORTH DAKOTA  *****

CITY           SKY/WX    TMP DP  RH WIND       PRES   REMARKS
BISMARCK       MOSUNNY   70  46  42 CALM      29.79F
MINOT          PTSUNNY   69  50  50 E5        29.80F
JAMESTOWN      CLOUDY    70  50  49 NW5       29.77F
MINOT AFB      CLOUDY    67  51  57 NE14      29.79F
GARRISON         N/A     65  51  60 VRB3      29.80F
WILLISTON      CLOUDY    65  50  58 E9        29.83S
DICKINSON      CLOUDY    65  42  43 E7        29.79F
HETTINGER      CLOUDY    65  47  52 S7        29.83S
$$

 *****  OTHER AIRPORT OBSERVATIONS IN OUR AREA  *****

CITY           SKY/WX    TMP DP  RH WIND       PRES   REMARKS
WALHALLA       FAIR      68  66  94 N12G23    29.80R
GRAFTON AIRPOR FAIR      72  54  53 NE3       29.79S
VALLEY CITY AR FAIR      70  55  60 N6        29.79S
CANDO          NOT AVBL
CAVALIER APRT  FAIR      72  55  56 CALM      29.78S
GWINNER        MOCLDY    63  61  94 W6        29.79R
SHEYENNE NWR     N/A     59  58  97 W7        29.95S
ROLLA          CLOUDY    57  57 100 NE16      29.86S
 ***** THE ABOVE OBSERVATIONS ARE NON NWS ARE NOT QUALITY
       CONTROLLED AND MAY MIS-REPORT RAIN FOR SNOW...
$$

  *****  WEATHER ACROSS NORTHERN MINNESOTA  *****

CITY           SKY/WX    TMP DP  RH WIND       PRES   REMARKS
FLAG ISLAND    LGT RAIN  63  59  88 CALM      29.83S
WARROAD        RAIN      63  59  88 SE3       29.83S
ROSEAU         RAIN      63  57  82 E7        29.82S
HALLOCK        SUNNY     73  52  46 NW5       29.77S
THF RVR FALLS  CLOUDY    66  57  72 SE12      29.79F
BAUDETTE       CLOUDY    68  52  56 S16G24    29.84R
WASKISH        PTSUNNY   66  55  68 SE8       29.83S
CROOKSTON      CLOUDY    61  61 100 SE12      29.78R
STEPHEN NDAWN    N/A     73  55  53 NW6         N/A
GREENBUSH NDAW   N/A     64  59  82 SE9         N/A
$$
  *****  WEATHER ACROSS CENTRAL AND WEST MINNESOTA  *****

CITY           SKY/WX    TMP DP  RH WIND       PRES   REMARKS
FOSSTON        CLOUDY    68  57  68 E10       29.80S
BEMIDJI        CLOUDY    64  54  69 SE14      29.82F
PARK RAPIDS    CLOUDY    64  54  69 SE10      29.81S
ELBOW LAKE     FAIR      68  59  72 SE6       29.76R
WADENA         CLOUDY    63  57  82 E13       29.80S
DETROIT LAKES  MOSUNNY   68  59  73 SE12      29.79S
MOORHEAD       LGT RAIN  63  61  94 N7        29.77S
FERGUS FALLS   CLOUDY    70  57  64 SE6       29.73S
MORRIS MN      CLOUDY    70  61  73 SE9       29.72F
STAPLES        DRIZZLE   59  57  94 SE8       29.79F
$$
  *****  WEATHER ELSEWHERE ACROSS MINNESOTA  *****

CITY           SKY/WX    TMP DP  RH WIND       PRES   REMARKS
DULUTH         LGT RAIN  52  51  97 E8        29.84F
INTRNTL FALLS  PTSUNNY   68  52  56 S3        29.85F
ELY            LGT RAIN  61  57  88 E3        29.89S
CLOQUET        DRIZZLE   52  50  93 E7        29.84S
WHEATON        CLOUDY    72  59  64 W5        29.76S
BRAINERD       LGT RAIN  61  59  93 E8        29.82F FOG
HIBBING        CLOUDY    60  56  86 NE6       29.85F
ALEXANDRIA     CLOUDY    62  58  86 E13       29.78F
SAINT CLOUD    LGT RAIN  60  59  96 N6        29.79F VSB 1
MINNEAPOLIS    CLOUDY    66  62  87 NW5       29.76F
$$

  *****  WEATHER ACROSS SOUTH DAKOTA  *****

CITY           SKY/WX    TMP DP  RH WIND       PRES   REMARKS
SIOUX FALLS    PTSUNNY   75  60  59 NE8       29.71F
BROOKINGS      SUNNY     71  55  56 N9        29.72
WATERTOWN      SUNNY     69  54  58 NW7       29.74F
HURON          MOSUNNY   71  61  70 N10       29.73F
SISSETON         N/A     67  57  70 W12       29.73F
ABERDEEN       CLOUDY    65  59  81 SW6       29.78S
MITCHELL       PTSUNNY   71  57  61 NE6       29.73F
PIERRE         CLOUDY    68  54  60 N5        29.77S
MOBRIDGE       CLOUDY    71  46  40 CALM      29.76F
RAPID CITY     PTSUNNY   63  50  62 S14       29.84S
$$

  *****  SOME WEATHER IN NEARBY STATES *****

CITY           SKY/WX    TMP DP  RH WIND       PRES   REMARKS
GLASGOW MT     SUNNY     68  45  43 CALM      29.81F
GREAT FALLS MT CLOUDY    64  35  34 NW18      29.82S
CHEYENNE WY    CLOUDY    55  41  59 NE12      29.91F
SCOTTSBLUFF NE CLOUDY    59  45  59 S6        29.88R
OMAHA NE       CLOUDY    77  60  55 E9        29.68F
DES MOINES IA  PTSUNNY   76  61  59 NW6       29.73S
DAVENPORT IA   MOSUNNY   78  68  71 S17       29.75F
CHICAGO IL     CLOUDY    79  65  62 S13       29.81F
EAU CLAIRE WI  HVY RAIN  66  65  96 VRB3      29.72F FOG
LA CROSSE WI   LGT RAIN  73  67  81 S8        29.72F
$$

  *****  SOME NATIONAL WEATHER *****

CITY           SKY/WX    TMP DP  RH WIND       PRES   REMARKS
LA GUARDIA NY  PTSUNNY   79  68  69 S12       30.00S
RALEIGH NC     MOSUNNY   84  62  47 S7        30.07F
ATLANTA GA     PTSUNNY   83  59  44 E10       30.03F
NEW ORLEANS LA CLOUDY    82  67  60 SE10      29.92R
OKLAHOMA CITY  CLOUDY    76  65  68 SE10      29.65F
ALBUQUERQUE NM PTSUNNY   74  22  14 W14       29.86S
SALT LAKE CITY MOSUNNY   69  39  33 S14       29.89F
LOS ANGELES CA MOSUNNY   67  55  65 W17       29.86F
BOISE ID       SUNNY     68  30  24 N15G24    29.93F
SEATTLE WA     PTSUNNY   64  39  39 W12G18    30.13F
$$

*** WEATHER ACROSS MANITOBA...SASKATCHEWAN AND ONTARIO ***
                ***ONTARIO***

CITY           SKY/WX    TMP DP  RH WIND       PRES   REMARKS
GERALDTON      CLOUDY    72  57  60 SE9       29.90S
THUNDER BAY    LGT RAIN  54  50  87 E6        29.91S
SIOUX LOOKOUT  CLOUDY    64  55  72 W6        29.88S
TORONTO        PTSUNNY   84  64  51 SW10      29.93S
BIG TROUT LK   CLOUDY    46  37  71 NE8G17    30.09R
PICKLE LAKE    CLOUDY    57  54  88 NE12G17   29.94R
DRYDEN         CLOUDY    64  61  88 VRB2      29.88S
KENORA         LGT RAIN  61  59  94 S12G18    29.86R
$$
                *** MANITOBA***

CITY           SKY/WX    TMP DP  RH WIND       PRES   REMARKS
BRANDON        PTSUNNY   55  52  88 NE23      29.89S
DAUPHIN        CLOUDY    54  46  76 N16       29.96F
ISLAND LAKE    CLOUDY    46  39  76 NE9G18    30.10S
PILOT MOUND      N/A     59  54  82 NE14G23     N/A
THE PAS        CLOUDY    54  37  54 E10       30.06F
THOMPSON       PTSUNNY   45  34  65 E10G18    30.18F
WINNIPEG       MOSUNNY   68  63  83 N18       29.81F
LYNN LAKE      SUNNY     52  34  50 SE14      30.14S
CHURCHILL      CLOUDY    32  27  80 NE6       30.37R
GILLAM         CLOUDY    41  32  70 NE9       30.25F
$$
                ***SASKATCHEWAN***

CITY           SKY/WX    TMP DP  RH WIND       PRES   REMARKS
ESTEVAN        PTSUNNY   63  57  82 E10       29.85S
KINDERSLEY     PTSUNNY   72  41  33 SE22G28   29.78F
LLOYDMINSTER   TSTM      64  50  59 SE17      29.78S
PRINCE ALBERT  PTSUNNY   64  48  55 E14       29.93R
REGINA         PTSUNNY   68  48  49 E20       29.86S
YORKTON        SUNNY     64  52  63 NE18G24   29.90S
N. BATTLEFORD  PTSUNNY   64  46  52 E25G32    29.86S
LA RONGE       MOSUNNY   55  41  58 NE15      29.99F
SASKATOON      LGT RAIN  59  55  88 N10       29.89R
SWIFT CURRENT  MOSUNNY   68  46  45 SE15G21   29.82F
$$
NOTE: THESE ARE AUTOMATED STATIONS WITH LIMITED QUALITY CONTROL
      "FAIR" INDICATES FEW OR NO CLOUDS BELOW 12,000 FEET WITH NO
      SIGNIFICANT WEATHER AND/OR OBSTRUCTIONS TO VISIBILITY.
      SKY/WX - SKY CONDITION AND SIGNIFICANT WEATHER.
      TMP - AIR TEMPERATURE.    DP   - DEWPOINT TEMPERATURE.
      RH  - RELATIVE HUMIDITY.  PRES - PRESSURE.
      HX  - HEAT INDEX.         WCI  - WIND CHILL INDEX.
$




USA.gov is the U.S. government's official web portal to all federal, state and local government web resources and services.